Location: Wyoming Skies Observatory
(43.6910°N, 108.3105°W)
Time: 09:31:21
(UTC-06:00)

Daily predictions for brighter satellites

Satellite Brightness Start Highest point End
(mag) Time Altitude Azimuth Time Altitude Azimuth Time Altitude Azimuth
SJ 16-02 3.2 21:13:24 10° NNE 21:16:27 18° ENE 21:19:28 10° E
Cosmos 1898 Rocket 3.6 21:15:23 10° NNW 21:20:43 88° WSW 21:26:03 10° SSE
Cosmos 2333 Rocket 4.3 21:19:02 10° NNE 21:21:49 14° NE 21:24:35 10° ENE
Meteor 1-12 Rocket 4.4 21:18:10 10° N 21:24:10 86° E 21:30:11 10° S
CENTAUR R/B 2.8 21:19:34 10° S 21:25:08 44° ESE 21:31:28 10° NE
COSMOS 2428 4.4 21:21:10 10° N 21:25:18 20° NE 21:29:24 10° E
Cosmos 1814 Rocket 4.2 21:20:16 10° S 21:25:21 54° ESE 21:30:32 10° NNE
Okean 1 4.2 21:22:42 10° SSW 21:26:41 55° W 21:30:41 10° N
CZ-4C R/B 4.0 21:21:27 10° NNW 21:27:33 32° NE 21:34:22 10° E
Cosmos 2233 Rocket 4.0 21:23:33 10° S 21:29:42 88° E 21:35:58 10° N
Resurs 01 Rocket 2.3 21:25:26 10° S 21:29:45 56° W 21:34:06 10° NNW
Aureole 2 Rocket 2.7 21:28:48 10° N 21:31:33 36° ENE 21:33:53 12° SE
Cosmos 990 Rocket 4.0 21:27:54 10° NNW 21:33:09 87° ENE 21:38:23 10° SSE
H-2A R/B 2.6 21:29:16 10° SE 21:33:53 41° ENE 21:38:38 10° N
Lacrosse 5 rocket 2.2 21:29:50 10° NW 21:34:04 45° NE 21:38:03 10° ESE
SL-08 RB Rocket 4.4 21:30:51 10° SE 21:35:03 39° ENE 21:39:19 10° N
Meteor 2-4 Rocket 3.8 21:31:33 10° S 21:36:51 55° E 21:42:18 10° NNE
ATLAS 3B R/B 4.0 21:33:40 10° WSW 21:40:30 47° NW 21:47:07 10° NNE
ARGOS 3.3 21:38:15 10° SSE 21:43:34 65° ENE 21:48:56 10° N
Cosmos 1242 Rocket 3.3 21:41:01 10° NNW 21:44:35 53° W 21:48:05 10° S
Cosmos 2322 Rocket 2.6 21:42:23 10° NNW 21:47:56 63° WSW 21:53:27 10° S
Cosmos 2322 4.3 21:42:45 10° NNW 21:48:16 45° ENE 21:52:56 14° SE
Cosmos 2237 Rocket 4.4 21:48:33 10° NNE 21:51:08 13° NE 21:53:42 10° ENE
SL-16 R/B 3.0 21:52:39 10° NW 21:58:07 49° WSW 22:03:33 10° S
Cosmos 1340 Rocket 2.8 21:55:02 10° S 21:59:03 73° E 22:03:08 10° NNE
Cosmos 2150 Rocket 4.2 21:56:16 10° NNW 22:01:40 77° WSW 22:06:25 13° SSE
Cosmos 1025 Rocket 4.2 22:04:19 18° SE 22:06:20 26° E 22:09:57 10° NNE
Cosmos 540 Rocket 3.5 22:04:01 10° S 22:09:04 58° ESE 22:14:09 10° NNE
MetOp-B 4.1 22:05:17 13° SSE 22:10:08 88° WSW 22:15:32 10° NNW
Cosmos 1513 Rocket 4.4 22:08:49 10° S 22:14:53 76° E 22:21:06 10° N
Cosmos 1455 Rocket 3.5 22:13:16 10° NNW 22:17:35 61° W 22:21:29 12° S
USA 245 3.3 22:16:00 22° SSE 22:18:16 77° ENE 22:22:51 10° N
Cosmos 2219 4.2 22:16:32 20° SE 22:18:58 26° ESE 22:23:39 10° NE
Cosmos 2237 4.2 22:13:25 10° NNW 22:19:11 76° ENE 22:23:05 21° SSE
Terra 3.0 22:17:13 18° ESE 22:19:46 29° ENE 22:23:51 10° N
SPOT 5 3.0 22:17:09 22° SE 22:19:49 53° ENE 22:24:19 10° N
Cosmos 2034 Rocket 4.0 22:14:00 11° S 22:19:53 67° E 22:26:00 10° NNE
Cosmos 1464 Rocket 4.1 22:16:17 10° S 22:22:39 86° W 22:29:04 10° N
Abrixas rocket 3.6 22:20:36 10° W 22:23:40 39° N 22:26:45 10° ENE
Cosmos 841 Rocket 4.1 22:21:43 10° SSW 22:26:54 59° WNW 22:32:08 10° NNE
Helios 1A 2.9 22:28:05 26° SSE 22:30:21 73° ENE 22:34:32 10° N
Okean 2 3.5 22:28:17 25° SSE 22:30:32 57° E 22:34:39 10° NNE
ISS -1.2 22:28:24 10° WNW 22:31:00 21° N 22:33:35 10° NE
Meteor 1-15 Rocket 4.2 22:25:20 10° N 22:31:06 90° WNW 22:35:05 20° S
Tiangong 2 0.9 22:28:12 10° W 22:31:21 74° S 22:32:27 36° ESE
Shenzhou-11 Module 3.3 22:30:07 10° W 22:32:38 25° SSW 22:32:39 25° SSW
DELTA 2 R/B (1) 4.5 22:29:52 10° SSW 22:34:18 25° SSE 22:34:18 25° SSE
Cosmos 372 Rocket 3.9 22:30:25 10° NNW 22:35:35 85° ENE 22:38:28 26° SSE
CZ-2C R/B 4.1 22:32:03 10° NE 22:36:17 22° E 22:37:37 20° ESE
Cosmos 2360 Rocket 2.6 22:31:24 10° NNW 22:36:57 58° WSW 22:40:45 20° S
Cosmos 2219 Rocket 2.7 22:34:57 10° NNW 22:40:21 47° ENE 22:43:21 24° ESE
Cosmos 2333 4.3 22:36:22 10° NNW 22:42:03 72° ENE 22:45:09 28° SE
Cosmos 1356 Rocket 3.5 22:41:26 29° S 22:43:29 65° E 22:47:46 10° NNE
USA 234 3.6 22:38:13 10° NE 22:44:45 70° NW 22:51:16 10° WSW
BREEZE-M R/B 4.2 22:43:10 10° WNW 22:45:58 26° NNW 22:48:09 10° NE
Cosmos 1634 Rocket 4.5 22:42:55 26° SE 22:46:06 45° E 22:52:03 10° NNE
ERS-1 Rocket 3.7 22:47:42 18° SSW 22:51:14 48° W 22:56:07 10° NNW
Helios 1B rocket 2.3 22:49:43 10° NNE 22:53:52 76° ESE 22:55:37 34° S
COSMOS 2455 4.1 22:54:03 22° ESE 22:54:20 22° ESE 22:58:47 10° ENE
SJ 16-02 2.0 22:51:03 10° NNW 22:55:21 50° WSW 22:57:27 27° SSW
CZ-2C R/B 3.5 22:57:12 31° SE 22:59:37 54° ENE 23:05:07 10° N
Cosmos 2228 4.0 22:57:53 10° NNE 23:01:44 31° ENE 23:02:36 29° E
Meteor 1-29 2.8 23:00:59 10° NNE 23:04:28 78° E 23:04:59 61° S
Okean 1-7 Rocket 3.7 23:04:33 41° SSE 23:05:56 63° E 23:10:26 10° NNE
IGS 5A 3.4 23:05:01 44° SSE 23:06:17 88° W 23:10:28 10° NNW
Cosmos 2333 Rocket 2.3 23:01:31 10° NNW 23:07:13 67° ENE 23:09:41 35° SE
SL-16 R/B 4.1 23:05:03 10° N 23:09:07 20° NE 23:12:47 11° E
SPOT 1/Viking Rocket 4.0 23:06:57 26° SSW 23:09:43 54° W 23:14:48 10° NNW
Cosmos 1726 Rocket 3.9 23:05:43 10° N 23:10:01 50° ENE 23:11:00 42° ESE
COSMOS 2428 2.7 23:04:30 10° NNW 23:10:11 76° WSW 23:12:38 35° S
Lacrosse 5 rocket 2.5 23:09:26 10° WNW 23:13:07 28° SW 23:13:45 27° SW
H-2A R/B 3.8 23:09:40 11° SW 23:13:28 24° W 23:17:33 10° NW
CENTAUR R/B 3.9 23:10:00 10° WSW 23:15:49 42° NW 23:22:31 10° NNE
Cosmos 1125 Rocket 4.2 23:11:00 10° NNW 23:16:01 46° WSW 23:18:20 28° SSW
CZ-4C R/B 2.9 23:09:37 10° NW 23:16:52 80° SW 23:20:58 32° SSE
Cosmos 783 Rocket 4.4 23:14:12 28° SSW 23:17:03 86° ESE 23:22:24 10° NNE
Cosmos 1980 4.2 23:13:17 10° NNW 23:18:47 50° ENE 23:21:02 32° ESE
Cosmos 1953 4.2 23:20:23 10° NNE 23:23:13 18° ENE 23:23:29 18° ENE
Cosmos 2297 Rocket 2.8 23:26:10 34° ESE 23:26:41 35° ESE 23:31:46 10° NE
Cosmos 2058 Rocket 3.3 23:22:53 10° N 23:27:20 54° ENE 23:28:04 48° ESE
Cosmos 1092 Rocket 4.2 23:21:02 10° NNW 23:27:20 67° W 23:30:34 30° SSW
Cosmos 2227 Rocket 2.6 23:29:29 39° SE 23:30:17 42° ESE 23:35:35 10° NE
CARTOSAT-1 4.3 23:33:20 35° SW 23:34:30 44° W 23:38:39 10° NNW
Cosmos 1174 4.0 23:32:09 10° NNW 23:34:48 47° NNE 23:34:48 47° NNE
Cosmos 2237 Rocket 2.4 23:30:43 10° NNW 23:36:23 64° ENE 23:38:17 41° SE
Cosmos 773 Rocket 4.0 23:42:50 53° SE 23:43:37 60° ESE 23:48:41 10° NNE
SAR-Lupe-4 3.7 23:43:56 67° NE 23:43:56 67° NE 23:47:16 10° N
NOSS 0 Rocket 3.9 23:38:20 10° NNW 23:44:37 82° WSW 23:46:42 45° SSE
Cosmos 2082 4.2 23:44:20 40° ESE 23:44:53 41° ESE 23:50:14 10° NE
ALOS 2 4.1 23:44:31 23° E 23:45:18 24° ENE 23:48:49 10° NNE
Cosmos 1544 4.5 23:46:18 10° NNW 23:49:34 29° W 23:49:58 29° WSW
Cosmos 489 Rocket 4.4 23:44:35 10° NNW 23:51:00 90° WSW 23:53:07 46° SSE
Cosmos 1606 Rocket 4.3 23:48:17 10° NNW 23:52:33 46° W 23:53:25 40° SW
Cosmos 1626 Rocket 4.1 23:54:35 43° E 23:54:35 43° E 23:58:43 10° NNE
